Home   Weather   Kapurthala   Past weeks

Flag for India Past Weather in Kapurthala, Punjab, India — Yesterday and Last 2 Weeks

Now
93 °F

Clear.


Feels Like: 90 °F
Forecast: 72 / 101 °F
Wind: 10 mph from West

Location: Amritsar Airport

Current Time: Apr 25, 2017 at 4:32:39 pm

Latest Report: Apr 25, 2017 at 3:30 pm


Visibility: 4 mi

Pressure: 29.68 "Hg

Humidity: 20%

Dew Point: 46 °F

Location of KapurthalaLocation

Past Weather in Kapurthala — Graph

°F

Kapurthala Temperature Yesterday

Maximum temperature yesterday: 93 °F (at 4:00 pm)
Minimum temperature yesterday: 64 °F (at 6:30 am)
Average temperature yesterday: 80 °F

High & Low Weather Summary for the Past Weeks

 TemperatureHumidityPressure
High109 °F (Apr 18, 4:30 pm)100% (Apr 22, 4:30 am)29.86 "Hg (Apr 22, 4:30 am)
Low59 °F (Apr 11, 4:30 am)8% (Apr 19, 1:00 pm)29.45 "Hg (Apr 20, 5:00 pm)
Average85 °F39%29.69 "Hg
* Reported Apr 10 2:30 pm — Apr 25 3:00 pm, Kapurthala, Weather by CustomWeather, © 2017

Note: Actual official high and low records may vary slightly from our data, if they occured in-between our weather recording intervals... More about our weather records

Advertising

Kapurthala Weather History for the Previous 24 Hours

Scroll right to see more
 ConditionsComfort  
Time TempWeatherWind HumidityBarometerVisibility
3:00 pm
Tue, Apr 25
93 °FClear.13 mph19%29.71 "Hg4 mi
2:30 pm93 °FClear.9 mph20%29.71 "Hg4 mi
2:00 pm93 °FClear.12 mph20%29.71 "Hg4 mi
1:30 pm91 °FClear.10 mph20%29.74 "Hg4 mi
1:00 pm91 °FPassing clouds.12 mph20%29.74 "Hg4 mi
12:30 pm91 °FPassing clouds.13 mph20%29.74 "Hg4 mi
12:00 pm91 °FPassing clouds.10 mph18%29.74 "Hg4 mi
11:30 am90 °FPassing clouds.6 mph21%29.77 "Hg4 mi
11:00 am90 °FPassing clouds.8 mph22%29.77 "Hg4 mi
10:30 am88 °FPassing clouds.8 mph25%29.77 "Hg4 mi
10:00 am84 °FPassing clouds.5 mph37%29.77 "Hg4 mi
9:30 am81 °FClear.3 mph48%29.77 "Hg4 mi
9:00 am77 °FClear.2 mph57%29.77 "Hg4 mi
8:00 am72 °FHaze.No wind73%29.77 "Hg3 mi
7:30 am70 °FFog.7 mph73%29.74 "Hg3 mi
7:00 am66 °FFog.2 mph88%29.74 "Hg3 mi
6:00 am66 °FFog.2 mph78%29.71 "Hg2 mi
2:00 am70 °FHaze.No wind60%29.74 "Hg2 mi
1:30 am70 °FHaze.3 mph60%29.77 "Hg2 mi
1:00 am72 °FHaze.6 mph57%29.77 "Hg2 mi
12:30 am72 °FHaze.7 mph57%29.77 "Hg2 mi
11:30 pm
Mon, Apr 24
73 °FHaze.7 mph61%29.77 "Hg3 mi
11:00 pm75 °FHaze.7 mph57%29.77 "Hg3 mi
10:30 pm75 °FHaze.3 mph57%29.77 "Hg3 mi
10:00 pm79 °FHaze.2 mph51%29.77 "Hg3 mi
9:30 pm79 °FHaze.No wind48%29.77 "Hg3 mi
8:30 pm81 °FClear.No wind45%29.74 "Hg4 mi
8:00 pm86 °FClear.2 mph33%29.74 "Hg4 mi
7:30 pm82 °FClear.No wind42%29.71 "Hg4 mi
7:00 pm88 °FClear.3 mph33%29.71 "Hg4 mi
6:30 pm90 °FClear.7 mph31%29.71 "Hg4 mi
6:00 pm91 °FClear.8 mph26%29.71 "Hg4 mi
5:00 pm91 °FClear.10 mph28%29.71 "Hg4 mi
4:30 pm91 °FClear.10 mph28%29.71 "Hg4 mi
4:00 pm93 °FClear.5 mph26%29.71 "Hg4 mi
Weather by CustomWeather, © 2017

See weather overviewHow to use our weather pages